GFSNGP_925_spd_111.txt.gz
Wind_Speed
14 7 1 3 2 3 2 3 13 17 13 12 11 6 9 10 9 10 9 11 11 12 10 14 18 20 16 9 12 15 15 15 17 17 17 19 22 21 18 17 17 17 21 24
3 13 6 1 0 5 3 2 4 6 4 3 4 10 9 10 11 12 10 10 12 12 11 11 16 19 20 13 12 6 14 15 15 18 17 17 21 25 24 22 20 20 20 21
5 6 7 5 2 1 2 4 3 5 4 7 11 12 9 11 11 11 9 10 10 10 10 13 16 21 22 19 14 12 10 11 14 18 18 19 19 19 23 25 25 24 23 22
6 10 3 1 5 6 2 11 7 6 10 9 12 13 13 11 11 10 10 9 10 9 12 14 13 12 14 13 15 14 15 7 12 17 20 22 20 21 20 22 27 29 28 26
3 6 4 2 4 2 1 2 1 11 11 13 13 12 12 11 11 10 10 9 10 11 11 12 17 17 11 13 15 14 16 15 12 9 17 22 24 24 22 23 22 23 28 28
4 4 2 1 6 5 3 1 2 12 11 12 8 4 2 8 11 12 12 12 10 12 14 16 17 15 17 18 15 15 16 14 14 11 12 17 26 25 26 27 26 27 27 27
6 4 6 5 12 6 2 3 6 12 9 10 4 1 7 7 10 10 10 12 11 11 13 15 17 15 15 16 19 19 18 15 16 13 9 12 21 26 26 27 27 23 21 18
2 3 6 14 8 4 3 2 4 9 4 6 13 9 9 6 7 8 8 12 13 11 12 15 17 17 15 17 17 17 16 15 15 17 16 13 6 15 22 26 26 23 20 14
4 3 4 9 7 8 6 1 4 7 9 13 12 9 7 7 8 8 10 11 12 12 12 15 16 15 15 17 18 16 16 17 19 19 19 15 11 12 16 17 19 19 22 22
3 1 2 10 7 10 10 12 11 11 11 11 12 9 9 7 7 7 10 11 13 13 14 15 17 16 14 13 12 12 13 14 14 20 19 18 17 17 18 18 19 20 21 22
5 5 6 14 14 10 11 14 13 16 14 11 11 10 8 7 6 7 9 12 13 14 14 15 15 15 15 15 12 11 12 13 14 18 22 25 27 21 20 17 21 26 23 25
3 10 3 7 13 14 12 10 9 16 12 11 10 9 8 7 8 9 11 12 13 13 13 14 14 15 15 13 10 8 12 14 16 19 21 22 26 35 36 33 32 32 34 37
4 4 10 5 14 15 12 9 12 14 9 10 10 9 9 6 10 10 10 12 12 11 11 12 15 16 16 14 11 12 14 15 19 20 19 21 24 28 34 42 44 41 38 39
9 3 5 14 8 11 8 10 13 15 13 11 8 10 9 10 10 10 10 9 9 11 13 15 16 16 14 13 14 18 19 19 20 22 22 22 23 24 28 29 31 34 37 38
9 10 8 7 8 10 13 7 9 8 7 8 9 7 9 8 9 9 7 9 10 13 14 14 16 15 14 13 15 15 16 18 20 21 22 25 26 27 28 28 28 28 30 33
4 9 9 9 10 11 10 10 8 8 6 5 7 10 9 9 10 9 9 10 9 10 11 11 12 11 10 11 14 16 17 18 19 21 22 23 24 25 25 25 24 23 22 18
6 8 9 9 10 9 10 8 8 7 7 7 7 7 7 9 10 10 10 10 11 11 10 10 9 7 8 9 11 12 13 15 18 20 20 20 21 21 21 21 22 21 18 17
7 7 7 7 8 8 9 10 12 11 8 6 7 6 6 7 8 7 8 9 11 13 12 9 7 7 8 9 9 11 13 14 16 19 19 20 20 19 19 20 20 21 20 20
10 9 9 10 10 8 8 10 10 9 8 5 6 7 7 7 8 8 9 10 9 9 10 7 6 7 7 9 10 11 13 15 17 18 19 20 19 17 18 19 21 20 19 19
11 12 12 11 12 12 9 10 7 8 7 5 7 8 9 7 8 9 10 12 10 6 5 5 7 9 9 11 12 12 13 14 16 16 16 17 17 18 18 19 19 19 18 18
9 10 11 12 11 11 12 10 9 8 7 7 9 8 8 8 8 7 8 8 8 7 7 7 7 7 8 11 12 12 13 14 14 15 15 17 18 18 18 17 17 17 17 17
7 8 10 9 8 10 13 12 10 11 11 13 13 12 13 10 11 12 11 8 6 6 8 8 8 8 9 10 12 12 12 13 14 15 16 16 17 17 17 16 16 16 16 15
8 8 9 11 11 9 12 13 12 10 12 11 11 9 10 8 6 6 7 8 7 9 10 10 9 8 10 12 13 14 15 15 15 15 16 16 16 17 17 16 16 16 15 15
4 5 5 5 5 5 8 7 8 9 11 11 11 9 7 9 11 10 9 9 9 11 12 10 10 11 13 15 15 16 16 16 17 17 18 19 18 18 18 18 17 15 15 13
6 6 5 4 4 4 3 3 6 7 9 10 10 9 8 6 7 7 9 10 10 12 13 12 13 14 16 16 16 17 16 16 16 17 17 17 17 16 16 15 14 13 12 11
5 5 4 4 3 3 3 4 7 6 7 10 10 9 10 11 11 11 11 11 12 13 14 14 14 15 16 16 16 16 16 16 16 16 16 15 15 14 14 13 13 11 9 8
5 4 4 5 5 4 4 5 8 7 7 9 10 8 9 10 11 11 12 12 13 14 14 14 14 14 15 15 15 15 15 15 14 14 14 13 12 11 11 11 10 8 6 4

GFSNGP_925_spd_114.txt.gz
Wind_Speed
15 19 11 2 12 10 10 20 17 16 15 12 14 12 13 12 10 9 9 10 11 12 11 13 15 15 16 20 18 6 15 14 14 16 16 14 14 13 13 14 15 20 24 28
18 9 12 3 4 3 12 14 16 12 19 11 12 9 11 11 11 9 8 10 10 12 11 11 14 13 13 16 20 14 3 13 14 15 15 16 16 15 14 14 15 16 17 25
7 14 5 4 9 2 3 3 4 10 3 5 12 12 10 10 9 9 9 9 10 11 9 12 13 10 11 16 19 17 13 5 10 14 16 17 16 16 16 15 15 15 16 19
10 11 3 4 10 3 5 4 5 5 6 8 12 12 13 9 10 9 9 10 10 9 11 13 14 16 15 15 14 16 16 14 12 3 15 17 16 16 17 17 17 16 17 17
5 8 2 5 9 9 8 6 11 4 9 14 14 15 13 10 11 10 10 8 10 10 12 13 14 14 13 16 16 19 19 16 14 11 7 4 18 20 19 18 18 17 18 20
6 5 3 5 15 16 4 3 6 6 10 11 10 5 5 6 8 9 11 12 10 9 11 14 15 13 14 15 14 16 19 17 14 12 10 9 8 16 20 20 20 22 19 18
5 3 6 14 20 15 4 8 12 9 12 8 7 5 6 3 8 10 12 12 10 11 12 14 13 12 11 11 14 12 12 12 12 13 11 9 11 13 19 19 20 22 21 15
4 3 4 20 10 10 12 15 7 11 5 6 9 9 7 8 9 11 10 11 12 11 12 13 14 13 10 12 11 9 10 12 13 14 12 10 5 6 16 19 20 18 17 15
5 6 12 13 12 13 14 4 8 7 3 7 9 9 9 8 7 8 9 11 12 11 11 14 14 14 12 13 12 10 10 11 11 11 10 13 14 9 13 15 17 17 18 19
7 4 10 12 14 13 12 13 10 12 10 9 10 8 7 7 7 7 10 11 13 12 13 14 14 13 13 13 11 12 13 13 13 18 17 19 20 16 14 15 18 19 20 21
10 9 10 14 14 13 12 12 13 13 14 11 10 9 7 7 7 7 8 10 12 12 13 14 15 16 17 15 13 13 13 13 14 17 21 25 30 20 18 14 16 23 22 23
3 8 2 7 11 11 11 11 11 10 13 13 10 9 7 7 8 9 10 11 12 13 13 14 15 16 16 14 13 12 15 15 17 17 19 21 24 33 36 31 28 27 27 27
4 4 9 6 13 10 11 9 9 8 11 11 10 10 9 7 10 10 11 12 13 12 12 13 14 15 14 14 13 15 14 13 16 17 18 20 23 26 30 39 38 36 35 34
10 7 2 11 7 11 7 7 10 10 12 11 9 7 7 7 8 11 12 10 11 12 14 14 14 15 14 12 13 15 17 16 15 16 19 21 21 23 25 27 29 32 34 35
6 7 4 5 7 10 12 7 7 8 7 9 9 8 8 7 8 10 10 9 9 14 15 14 14 15 13 13 14 15 15 14 16 17 19 21 23 24 25 28 28 29 29 30
2 6 6 7 8 9 9 9 7 7 8 8 8 9 8 7 9 10 11 13 14 14 14 13 13 12 11 11 12 14 17 15 15 17 17 19 19 21 22 21 21 20 20 18
4 6 8 8 8 8 8 7 8 7 7 6 5 5 6 7 8 9 10 11 11 12 12 12 12 10 10 10 11 13 14 15 14 16 16 16 17 18 18 18 19 19 18 15
5 4 6 6 7 7 6 8 9 10 8 7 5 6 7 6 6 7 8 8 9 12 14 14 12 10 11 11 11 12 13 13 14 15 15 16 15 15 16 17 18 19 18 17
7 6 7 8 8 6 7 8 8 8 7 5 4 6 6 7 7 7 7 8 9 9 13 12 11 11 11 11 10 10 12 13 14 14 15 15 14 14 15 16 17 17 16 16
8 8 8 7 8 9 8 10 8 6 7 4 4 6 8 8 7 7 8 10 10 8 9 9 9 10 10 10 10 10 11 12 13 13 13 14 14 14 15 15 16 16 16 16
8 8 7 7 8 8 8 7 6 7 8 7 7 8 8 7 7 5 3 6 9 8 8 9 9 7 7 7 8 9 10 11 12 12 12 14 14 14 14 14 15 15 15 15
6 6 6 7 7 9 10 10 9 8 9 10 9 8 6 7 7 9 10 8 7 8 7 8 8 8 8 9 9 10 10 11 11 11 12 12 13 14 14 14 14 14 13 13
6 6 6 6 7 7 8 9 9 9 9 9 9 8 8 8 7 5 5 9 7 8 8 9 8 9 11 10 10 10 10 11 11 11 12 12 13 13 13 13 13 13 13 12
5 6 6 5 4 5 7 8 7 7 7 8 8 8 7 5 7 8 6 7 9 10 10 9 9 11 12 11 11 11 12 12 12 12 13 13 13 13 13 12 12 11 11 11
4 4 5 5 4 5 5 5 4 5 6 6 6 7 7 7 6 5 6 7 9 9 10 12 13 13 12 12 12 12 12 11 12 12 12 12 12 12 11 11 10 10 9 8
2 4 5 5 5 4 4 3 2 2 2 4 5 6 6 6 6 6 7 7 8 10 10 10 11 11 12 12 13 13 12 12 12 12 12 11 10 10 9 9 10 9 7 7
3 1 2 3 3 3 3 2 1 3 3 3 4 4 5 5 6 6 7 7 8 9 10 10 10 11 11 11 12 11 11 11 10 10 10 10 9 8 8 7 7 7 6 5

GFSNGP_925_spd_117.txt.gz
Wind_Speed
21 25 19 18 13 13 12 15 17 18 19 14 15 15 15 14 12 10 11 9 10 10 10 10 13 15 14 15 17 18 10 9 13 13 15 16 14 13 12 14 20 22 26 27
22 13 17 19 8 13 15 18 19 15 21 17 6 19 18 17 12 11 10 10 10 9 10 9 11 12 13 15 16 17 16 17 14 13 14 13 12 13 14 13 16 22 25 27
15 16 19 6 12 5 7 10 13 16 12 16 10 8 9 10 12 11 11 9 9 9 8 10 10 9 12 14 15 17 17 19 23 7 13 9 12 14 13 15 15 20 21 25
12 14 3 8 12 8 10 4 7 7 19 11 17 20 18 15 12 12 9 9 9 9 10 12 11 10 10 12 13 14 17 17 22 17 8 6 13 12 15 14 14 15 14 16
6 11 2 4 14 17 14 11 14 13 5 10 13 18 19 14 10 10 8 8 9 10 11 11 13 12 10 13 14 14 16 17 18 19 13 9 3 14 14 14 13 13 13 15
10 7 4 12 20 18 18 2 22 19 8 9 8 6 7 9 9 10 11 11 11 11 12 14 15 13 12 13 14 16 16 16 17 16 15 11 10 8 10 16 15 13 12 13
7 4 4 19 20 22 3 10 16 12 11 13 12 7 6 6 10 10 12 12 10 12 13 14 15 13 12 14 17 16 13 8 9 12 14 13 12 11 10 10 16 17 15 11
6 4 3 24 12 10 12 19 14 2 10 11 15 12 10 10 9 9 10 12 12 11 13 15 16 14 13 15 16 17 19 21 21 21 16 14 11 9 2 12 19 18 18 15
6 11 14 15 14 16 14 14 13 13 7 12 12 10 9 7 7 10 11 13 13 13 13 15 16 16 14 15 15 14 14 15 16 16 19 17 16 13 9 9 17 18 18 19
14 6 12 14 15 15 13 13 13 15 12 11 12 9 10 8 9 9 11 14 14 14 14 15 16 16 15 15 13 14 14 16 18 20 19 20 20 17 15 13 15 16 18 19
11 10 12 15 13 14 13 13 12 14 14 11 12 12 10 10 10 10 13 14 15 14 14 15 15 16 17 16 13 12 13 14 14 16 19 23 31 23 21 15 13 18 19 23
5 8 7 8 11 14 12 11 11 11 11 12 13 12 13 12 14 15 15 16 15 15 15 15 14 15 17 16 15 12 13 15 15 15 17 19 22 30 34 28 23 23 22 27
3 9 3 10 7 13 8 9 9 8 10 9 14 14 14 10 12 12 14 15 15 15 14 14 13 15 15 15 14 14 13 13 15 16 16 15 19 22 26 35 36 33 32 32
4 7 2 8 6 10 11 6 4 7 10 10 10 12 11 11 12 12 13 13 12 12 14 14 14 15 15 14 13 14 16 16 16 16 18 19 20 20 21 23 25 29 31 32
5 4 3 6 6 7 11 12 7 8 9 11 12 12 12 11 11 12 12 8 9 13 14 14 14 14 14 14 15 14 13 15 16 15 17 19 21 22 23 25 25 25 25 28
7 3 8 8 9 10 9 10 10 9 9 9 11 11 11 10 11 12 13 13 14 15 14 13 14 13 13 12 12 14 15 15 14 14 16 17 17 18 18 19 21 19 18 16
6 5 8 7 8 10 9 9 8 9 11 11 11 11 10 8 10 12 12 12 12 13 14 14 12 12 11 12 11 11 13 14 14 15 16 16 16 17 17 18 18 17 17 16
6 5 6 7 7 8 8 10 12 12 11 10 9 9 10 11 9 10 11 9 7 15 16 14 13 11 11 12 10 11 11 12 13 14 15 16 16 17 17 17 17 17 17 18
8 7 8 9 10 9 9 9 9 9 11 10 8 9 9 9 9 9 10 11 13 13 15 13 12 11 11 12 10 10 11 13 14 15 15 15 16 15 16 16 16 16 15 16
8 9 9 9 11 12 10 11 11 10 11 9 6 8 8 9 9 8 7 12 12 11 11 12 10 11 10 10 9 10 11 12 13 14 13 14 15 15 15 15 15 14 15 15
7 8 8 7 8 9 10 11 10 11 11 11 9 8 8 8 9 11 9 9 12 11 10 11 11 9 8 7 8 10 10 11 12 13 13 14 14 14 14 14 14 13 14 14
5 6 6 6 6 7 8 8 9 8 9 10 9 7 3 6 5 9 11 12 10 11 10 10 10 10 8 8 9 10 11 11 12 12 12 12 13 13 13 13 13 13 12 12
5 6 6 5 6 6 6 7 7 7 8 8 8 9 7 8 9 9 8 11 9 10 9 10 10 9 10 8 9 11 11 12 12 12 12 12 12 12 12 12 12 12 11 11
4 5 6 5 4 5 6 7 6 6 5 6 7 8 9 7 8 8 7 7 9 11 11 10 10 11 9 9 10 11 11 12 12 12 12 12 12 12 12 12 12 11 11 10
2 1 2 4 2 5 3 4 1 2 3 6 7 7 8 9 9 7 7 7 8 8 9 12 12 11 10 10 11 12 12 11 11 11 12 12 12 11 11 10 10 10 10 9
6 6 6 4 5 6 5 5 6 6 5 5 7 7 7 7 6 6 7 7 8 9 9 10 9 10 10 10 11 12 11 11 11 11 11 11 11 10 10 10 10 8 8 8
2 3 2 2 5 6 6 6 6 6 6 6 5 6 6 6 6 6 6 6 7 7 8 8 9 9 9 9 9 9 10 10 10 10 10 10 9 9 9 8 8 7 6 6

GFSNGP_925_spd_120.txt.gz
Wind_Speed
20 23 24 18 20 16 13 11 6 15 15 8 11 16 14 13 14 14 15 16 13 11 11 12 14 13 14 17 19 17 14 13 8 6 10 11 12 16 15 14 15 14 15 18
21 23 18 26 13 16 12 13 14 15 15 18 14 9 6 12 12 18 16 16 11 12 12 10 12 12 12 16 19 19 17 15 14 10 13 12 13 16 16 14 14 15 17 21
19 18 23 7 11 9 6 5 12 12 11 15 14 16 12 24 24 18 17 16 11 12 11 12 12 11 13 14 15 17 15 17 17 17 13 11 7 14 16 16 14 17 17 20
12 17 5 8 16 19 14 17 21 22 21 15 15 16 17 16 14 15 15 15 12 10 14 15 15 13 13 13 14 16 17 17 20 19 17 13 9 8 14 15 16 17 18 18
5 10 12 5 25 24 21 14 24 20 18 6 17 20 14 12 12 13 11 10 11 14 15 16 16 15 14 14 14 16 18 17 16 15 16 16 12 10 7 10 14 15 14 17
9 8 5 16 25 28 9 2 26 23 20 16 10 8 6 12 14 13 13 14 14 15 16 19 19 16 16 16 16 17 17 16 15 15 15 16 17 13 9 6 10 17 14 14
9 6 3 20 23 16 12 10 16 15 16 12 8 6 4 12 13 15 15 15 15 18 18 20 20 17 17 16 17 15 15 16 18 18 15 14 16 14 10 7 9 19 18 13
6 7 4 23 10 8 9 14 15 15 2 9 11 6 13 12 14 14 15 18 19 17 18 20 20 17 17 17 16 15 15 17 19 20 17 15 13 11 10 2 15 21 21 18
6 4 5 11 7 12 13 10 11 13 13 12 10 13 14 12 14 14 18 18 17 17 18 20 20 19 17 17 15 15 17 17 19 21 20 18 24 24 13 10 14 15 16 20
10 10 12 13 14 14 13 13 11 14 11 12 14 13 14 13 13 12 17 17 16 18 18 18 19 19 18 19 16 16 17 16 18 21 23 27 23 15 13 19 14 17 19 16
8 11 5 12 13 13 13 13 14 12 15 14 13 14 13 12 12 14 16 17 18 18 16 17 17 18 19 19 17 16 17 17 18 18 20 24 35 31 26 18 10 22 21 17
3 4 4 7 8 13 11 11 10 11 12 15 13 12 10 10 13 14 15 17 18 17 17 18 18 19 19 19 17 14 16 17 18 19 20 21 21 29 34 35 31 27 25 28
2 5 5 5 3 11 9 7 6 6 9 8 11 12 13 11 14 15 17 18 17 15 15 16 17 19 20 18 18 18 16 17 18 19 20 19 21 22 24 37 39 36 34 31
4 1 2 4 4 4 9 13 3 9 11 11 13 12 13 13 14 12 12 12 14 15 17 17 16 20 19 17 17 17 18 19 18 19 20 21 24 22 23 24 24 28 30 31
4 1 1 4 5 6 10 13 10 11 10 11 14 12 14 14 13 14 16 14 16 16 15 15 16 19 16 16 17 16 16 17 18 19 20 20 22 22 24 25 24 23 27 29
7 4 7 7 9 10 9 10 10 10 11 13 13 15 13 14 14 14 14 14 15 14 16 15 16 16 15 12 13 14 16 16 15 14 16 16 17 18 19 20 19 16 18 21
6 7 7 7 8 9 10 9 10 10 13 13 12 12 13 12 12 11 9 11 15 15 15 15 14 12 15 11 11 13 14 16 16 17 18 18 19 19 20 21 21 22 22 21
7 7 8 8 8 8 9 12 12 12 12 12 9 12 11 11 9 9 12 11 14 17 16 15 13 11 12 13 11 12 13 13 15 16 17 18 18 19 20 19 19 19 21 22
10 9 10 10 11 10 10 11 11 9 11 11 8 9 10 9 8 8 11 12 13 12 13 12 12 11 11 12 10 12 13 14 15 15 15 16 17 18 18 17 18 18 18 19
11 11 10 10 10 10 9 10 11 10 11 13 10 10 8 8 8 8 12 15 12 10 9 11 11 10 10 10 9 11 12 13 14 15 17 17 18 18 19 18 18 18 18 19
10 10 10 9 9 9 9 9 8 9 9 10 8 6 4 6 10 12 13 12 13 13 10 11 11 9 8 8 8 10 11 13 13 14 15 16 16 16 17 18 18 18 18 18
7 7 7 8 8 8 8 9 10 9 10 11 12 14 11 11 7 14 15 14 11 13 11 11 10 10 9 8 9 10 12 13 13 14 14 14 15 16 16 17 16 17 16 16
7 6 5 3 4 3 5 7 7 8 9 10 11 14 8 9 12 11 10 13 12 12 11 11 11 10 10 11 11 12 13 13 15 14 15 14 15 15 16 15 16 16 16 15
4 3 3 2 3 4 5 5 3 4 4 5 10 12 13 11 11 11 9 10 9 12 13 12 12 11 11 12 12 13 14 15 15 16 16 15 15 15 15 15 16 15 16 15
2 3 4 9 3 5 3 4 4 1 3 7 8 8 9 9 10 8 8 8 10 9 10 12 13 13 13 13 15 16 15 14 14 15 14 13 13 13 13 13 13 12 12 12
7 6 4 3 5 7 8 7 6 6 8 7 8 7 8 8 7 6 7 8 9 10 11 12 11 12 13 14 14 14 14 13 14 14 13 12 12 11 11 12 12 11 11 10
4 5 4 5 7 7 6 7 8 8 8 9 7 6 7 6 7 7 8 8 9 9 10 10 10 12 11 11 10 10 11 13 13 12 11 10 10 10 9 9 8 7 6 7